TimeEDT,TemperatureF,Dew PointF,Humidity,Sea Level PressureIn,VisibilityMPH,Wind Direction,Wind SpeedMPH,Gust SpeedMPH,PrecipitationIn,Events,Conditions,WindDirDegrees,DateUTC
12:15 AM,73.4,59.0,61,29.92,10.0,Calm,Calm,-,N/A,,Mostly Cloudy,0,2013-07-12 04:15:00
12:35 AM,73.4,59.0,61,29.92,10.0,Calm,Calm,-,N/A,,Mostly Cloudy,0,2013-07-12 04:35:00
12:55 AM,71.6,60.8,69,29.92,10.0,Calm,Calm,-,N/A,,Scattered Clouds,0,2013-07-12 04:55:00
1:15 AM,71.6,60.8,69,29.93,10.0,Calm,Calm,-,N/A,,Scattered Clouds,0,2013-07-12 05:15:00
1:35 AM,71.6,60.8,69,29.93,10.0,Calm,Calm,-,N/A,,Mostly Cloudy,0,2013-07-12 05:35:00
1:55 AM,71.6,60.8,69,29.92,10.0,Calm,Calm,-,N/A,,Scattered Clouds,0,2013-07-12 05:55:00
2:15 AM,71.6,60.8,69,29.93,10.0,Calm,Calm,-,N/A,,Scattered Clouds,0,2013-07-12 06:15:00
2:35 AM,69.8,62.6,78,29.93,10.0,Calm,Calm,-,N/A,,Mostly Cloudy,0,2013-07-12 06:35:00
2:55 AM,71.6,60.8,69,29.94,10.0,Calm,Calm,-,N/A,,Overcast,0,2013-07-12 06:55:00
3:15 AM,69.8,62.6,78,29.93,10.0,Calm,Calm,-,N/A,,Scattered Clouds,0,2013-07-12 07:15:00
3:35 AM,68.0,62.6,83,29.93,10.0,Calm,Calm,-,N/A,,Clear,0,2013-07-12 07:35:00
3:55 AM,69.8,60.8,73,29.94,10.0,Calm,Calm,-,N/A,,Mostly Cloudy,0,2013-07-12 07:55:00
4:15 AM,69.8,60.8,73,29.94,10.0,Calm,Calm,-,N/A,,Mostly Cloudy,0,2013-07-12 08:15:00
4:35 AM,69.8,60.8,73,29.94,10.0,Calm,Calm,-,N/A,,Mostly Cloudy,0,2013-07-12 08:35:00
4:55 AM,69.8,60.8,73,29.94,10.0,Calm,Calm,-,N/A,,Scattered Clouds,0,2013-07-12 08:55:00
5:15 AM,69.8,60.8,73,29.95,10.0,Calm,Calm,-,N/A,,Clear,0,2013-07-12 09:15:00
5:35 AM,69.8,60.8,73,29.95,10.0,Calm,Calm,-,N/A,,Scattered Clouds,0,2013-07-12 09:35:00
5:55 AM,69.8,60.8,73,29.96,10.0,Calm,Calm,-,N/A,,Overcast,0,2013-07-12 09:55:00
6:15 AM,69.8,60.8,73,29.97,10.0,Calm,Calm,-,N/A,,Mostly Cloudy,0,2013-07-12 10:15:00
6:35 AM,69.8,60.8,73,29.97,10.0,Calm,Calm,-,N/A,,Scattered Clouds,0,2013-07-12 10:35:00
6:55 AM,69.8,60.8,73,29.96,10.0,Calm,Calm,-,N/A,,Clear,0,2013-07-12 10:55:00
7:15 AM,69.8,60.8,73,29.97,10.0,Calm,Calm,-,N/A,,Scattered Clouds,0,2013-07-12 11:15:00
7:35 AM,69.8,60.8,73,29.97,10.0,NE,4.6,-,N/A,,Mostly Cloudy,50,2013-07-12 11:35:00
7:55 AM,69.8,60.8,73,29.97,10.0,NE,6.9,-,N/A,,Scattered Clouds,50,2013-07-12 11:55:00
8:15 AM,69.8,60.8,73,29.98,10.0,NE,8.1,-,N/A,,Scattered Clouds,50,2013-07-12 12:15:00
8:35 AM,69.8,62.6,78,29.98,10.0,NE,6.9,-,N/A,,Scattered Clouds,50,2013-07-12 12:35:00
8:55 AM,69.8,62.6,78,29.99,10.0,Calm,Calm,-,N/A,,Mostly Cloudy,0,2013-07-12 12:55:00
9:15 AM,71.6,62.6,73,29.99,10.0,Calm,Calm,-,N/A,,Scattered Clouds,0,2013-07-12 13:15:00
9:35 AM,71.6,62.6,73,29.99,10.0,Calm,Calm,-,N/A,,Scattered Clouds,0,2013-07-12 13:35:00
9:55 AM,71.6,62.6,73,30.00,10.0,Calm,Calm,-,N/A,,Scattered Clouds,0,2013-07-12 13:55:00
10:15 AM,71.6,62.6,73,30.00,10.0,Calm,Calm,-,N/A,,Mostly Cloudy,0,2013-07-12 14:15:00
10:35 AM,71.6,62.6,73,30.00,10.0,Calm,Calm,-,N/A,,Mostly Cloudy,0,2013-07-12 14:35:00
10:55 AM,71.6,62.6,73,30.01,10.0,Calm,Calm,-,N/A,,Mostly Cloudy,0,2013-07-12 14:55:00
11:15 AM,71.6,62.6,73,30.01,10.0,Calm,Calm,-,N/A,,Scattered Clouds,0,2013-07-12 15:15:00
11:35 AM,71.6,64.4,78,30.01,10.0,Calm,Calm,-,N/A,,Scattered Clouds,0,2013-07-12 15:35:00
11:55 AM,71.6,64.4,78,30.01,10.0,Calm,Calm,-,N/A,,Mostly Cloudy,0,2013-07-12 15:55:00
12:15 PM,71.6,64.4,78,30.01,10.0,Calm,Calm,-,N/A,,Scattered Clouds,0,2013-07-12 16:15:00
12:35 PM,73.4,64.4,73,30.01,10.0,Calm,Calm,-,N/A,,Mostly Cloudy,0,2013-07-12 16:35:00
12:55 PM,73.4,64.4,73,30.01,10.0,Calm,Calm,-,N/A,,Mostly Cloudy,0,2013-07-12 16:55:00
1:15 PM,73.4,66.2,78,30.01,10.0,Calm,Calm,-,N/A,,Mostly Cloudy,0,2013-07-12 17:15:00
1:35 PM,73.4,66.2,78,30.01,10.0,Calm,Calm,-,N/A,,Overcast,0,2013-07-12 17:35:00
1:55 PM,73.4,68.0,83,30.01,10.0,Calm,Calm,-,N/A,,Overcast,0,2013-07-12 17:55:00
2:15 PM,73.4,68.0,83,30.01,10.0,NE,5.8,-,N/A,,Overcast,50,2013-07-12 18:15:00
2:35 PM,73.4,68.0,83,30.01,10.0,Calm,Calm,-,N/A,,Overcast,0,2013-07-12 18:35:00
2:55 PM,73.4,68.0,83,30.01,10.0,NE,8.1,-,N/A,,Scattered Clouds,50,2013-07-12 18:55:00
3:15 PM,73.4,68.0,83,30.01,10.0,Calm,Calm,-,N/A,,Mostly Cloudy,0,2013-07-12 19:15:00
3:35 PM,73.4,68.0,83,30.01,10.0,NE,9.2,-,N/A,,Overcast,50,2013-07-12 19:35:00
3:55 PM,73.4,68.0,83,30.01,10.0,NE,4.6,-,N/A,,Mostly Cloudy,50,2013-07-12 19:55:00
4:15 PM,71.6,68.0,88,30.01,5.0,Calm,Calm,-,N/A,,Overcast,0,2013-07-12 20:15:00
4:35 PM,71.6,68.0,88,30.01,4.0,Calm,Calm,-,0.02,,Overcast,0,2013-07-12 20:35:00
4:55 PM,71.6,68.0,88,30.01,4.0,Calm,Calm,-,0.04,,Overcast,0,2013-07-12 20:55:00
5:15 PM,69.8,68.0,94,30.02,3.0,Calm,Calm,-,0.02,,Overcast,0,2013-07-12 21:15:00
5:35 PM,69.8,68.0,94,30.01,1.5,Calm,Calm,-,0.06,,Overcast,0,2013-07-12 21:35:00
5:55 PM,69.8,68.0,94,30.01,2.5,Calm,Calm,-,0.12,,Overcast,0,2013-07-12 21:55:00
6:15 PM,69.8,68.0,94,30.01,2.5,NE,5.8,-,0.04,,Overcast,50,2013-07-12 22:15:00
6:35 PM,69.8,68.0,94,30.01,3.0,NE,6.9,-,0.08,,Overcast,40,2013-07-12 22:35:00
6:55 PM,69.8,68.0,94,30.01,5.0,NE,9.2,17.3,0.08,,Overcast,40,2013-07-12 22:55:00
7:15 PM,69.8,68.0,94,30.01,4.0,NE,9.2,-,0.01,,Overcast,40,2013-07-12 23:15:00
7:35 PM,69.8,68.0,94,30.01,7.0,Calm,Calm,-,0.01,,Overcast,0,2013-07-12 23:35:00
7:55 PM,69.8,68.0,94,30.01,5.0,NE,3.5,-,0.05,,Overcast,50,2013-07-12 23:55:00
8:15 PM,69.8,68.0,94,30.01,5.0,Calm,Calm,-,0.03,,Overcast,0,2013-07-13 00:15:00
8:35 PM,69.8,68.0,94,30.01,3.0,ENE,10.4,16.1,0.07,,Overcast,60,2013-07-13 00:35:00
8:55 PM,69.8,68.0,94,30.02,4.0,ENE,5.8,-,0.10,,Overcast,70,2013-07-13 00:55:00
9:15 PM,68.0,68.0,100,30.02,3.0,ENE,11.5,16.1,0.03,,Overcast,60,2013-07-13 01:15:00
9:35 PM,68.0,68.0,100,30.03,4.0,ENE,13.8,19.6,0.07,,Overcast,70,2013-07-13 01:35:00
9:55 PM,68.0,66.2,94,30.03,5.0,ENE,11.5,18.4,0.10,,Overcast,70,2013-07-13 01:55:00
10:15 PM,68.0,66.2,94,30.03,3.0,ENE,11.5,23.0,0.03,,Overcast,70,2013-07-13 02:15:00
10:35 PM,68.0,66.2,94,30.03,3.0,ENE,9.2,16.1,0.05,,Overcast,60,2013-07-13 02:35:00
10:55 PM,68.0,66.2,94,30.04,4.0,ENE,10.4,16.1,0.07,,Overcast,70,2013-07-13 02:55:00
11:15 PM,68.0,66.2,94,30.05,4.0,ESE,10.4,17.3,0.02,,Overcast,110,2013-07-13 03:15:00
11:35 PM,68.0,66.2,94,30.04,7.0,East,12.7,19.6,0.03,,Overcast,90,2013-07-13 03:35:00
11:55 PM,68.0,66.2,94,30.05,10.0,East,10.4,17.3,0.05,,Overcast,80,2013-07-13 03:55:00